Time,TemperatureF,DewpointF,PressureIn,WindDirection,WindDirectionDegrees,WindSpeedMPH,WindSpeedGustMPH,Humidity,HourlyPrecipIn,Conditions,Clouds,dailyrainin,SoftwareType,DateUTC
2013-07-30 00:04:00,52.5,42.6,29.92,ESE,119,2.0,6.0,69,0.00,,,0.02,meteohub,2013-07-30 06:04:00,
2013-07-30 00:09:00,52.7,43.9,29.92,NE,36,0.0,6.0,72,0.00,,,0.02,meteohub,2013-07-30 06:09:00,
2013-07-30 00:14:00,51.4,43.5,29.93,NNE,13,2.0,3.0,74,0.00,,,0.02,meteohub,2013-07-30 06:14:00,
2013-07-30 00:19:00,51.3,43.0,29.93,North,0,0.0,2.0,73,0.00,,,0.02,meteohub,2013-07-30 06:19:00,
2013-07-30 00:24:00,51.4,43.2,29.93,NNE,18,0.0,2.0,73,0.00,,,0.02,meteohub,2013-07-30 06:24:00,
2013-07-30 00:29:00,51.6,43.3,29.93,WSW,246,2.0,3.0,73,0.00,,,0.02,meteohub,2013-07-30 06:29:00,
2013-07-30 00:34:00,51.6,43.3,29.93,SW,228,3.0,3.0,73,0.00,,,0.02,meteohub,2013-07-30 06:34:00,
2013-07-30 00:39:00,52.5,43.3,29.93,WSW,245,0.0,4.0,71,0.00,,,0.02,meteohub,2013-07-30 06:39:00,
2013-07-30 00:44:00,51.3,43.0,29.93,NW,316,2.0,4.0,73,0.00,,,0.02,meteohub,2013-07-30 06:44:00,
2013-07-30 00:49:00,50.7,42.8,29.93,West,264,2.0,4.0,74,0.00,,,0.02,meteohub,2013-07-30 06:49:00,
2013-07-30 00:55:00,51.3,42.6,29.93,SW,217,3.0,4.0,72,0.00,,,0.02,meteohub,2013-07-30 06:55:00,
2013-07-30 01:00:00,51.3,42.6,29.93,WSW,240,4.0,5.0,72,0.00,,,0.02,meteohub,2013-07-30 07:00:00,
2013-07-30 01:05:00,52.0,42.4,29.93,West,270,4.0,5.0,70,0.00,,,0.02,meteohub,2013-07-30 07:05:00,
2013-07-30 01:10:00,52.3,42.4,29.93,WNW,284,0.0,6.0,69,0.00,,,0.02,meteohub,2013-07-30 07:10:00,
2013-07-30 01:15:00,52.5,42.3,29.93,West,263,3.0,6.0,68,0.00,,,0.02,meteohub,2013-07-30 07:15:00,
2013-07-30 01:21:00,53.2,42.3,29.94,West,280,0.0,4.0,66,0.00,,,0.02,meteohub,2013-07-30 07:21:00,
2013-07-30 01:26:00,53.2,42.3,29.94,West,276,0.0,3.0,66,0.00,,,0.02,meteohub,2013-07-30 07:26:00,
2013-07-30 01:31:00,53.4,41.9,29.94,WSW,257,0.0,3.0,65,0.00,,,0.02,meteohub,2013-07-30 07:31:00,
2013-07-30 01:37:00,53.6,42.1,29.95,North,349,2.0,2.0,65,0.00,,,0.02,meteohub,2013-07-30 07:37:00,
2013-07-30 01:42:00,51.4,42.8,29.95,NW,322,3.0,9.0,72,0.00,,,0.02,meteohub,2013-07-30 07:42:00,
2013-07-30 01:47:00,49.6,42.1,29.95,NW,321,1.0,9.0,75,0.00,,,0.02,meteohub,2013-07-30 07:47:00,
2013-07-30 01:52:00,49.8,42.3,29.95,WNW,294,1.0,9.0,75,0.00,,,0.02,meteohub,2013-07-30 07:52:00,
2013-07-30 01:57:00,50.4,42.1,29.94,NW,305,0.0,5.0,73,0.00,,,0.02,meteohub,2013-07-30 07:57:00,
2013-07-30 02:02:00,50.4,42.1,29.95,NW,305,2.0,4.0,73,0.00,,,0.02,meteohub,2013-07-30 08:02:00,
2013-07-30 02:07:00,49.6,41.7,29.94,NW,319,1.0,4.0,74,0.00,,,0.02,meteohub,2013-07-30 08:07:00,
2013-07-30 02:12:00,49.8,41.9,29.94,NW,315,2.0,4.0,74,0.00,,,0.02,meteohub,2013-07-30 08:12:00,
2013-07-30 02:18:00,50.4,42.1,29.94,NNW,328,2.0,4.0,73,0.00,,,0.02,meteohub,2013-07-30 08:18:00,
2013-07-30 02:23:00,50.2,41.9,29.94,NW,305,2.0,7.0,73,0.00,,,0.02,meteohub,2013-07-30 08:23:00,
2013-07-30 02:28:00,49.8,41.9,29.94,NW,319,2.0,7.0,74,0.00,,,0.02,meteohub,2013-07-30 08:28:00,
2013-07-30 02:33:00,50.2,42.3,29.94,NW,326,2.0,7.0,74,0.00,,,0.02,meteohub,2013-07-30 08:33:00,
2013-07-30 02:38:00,49.6,42.1,29.94,WNW,300,2.0,5.0,75,0.00,,,0.02,meteohub,2013-07-30 08:38:00,
2013-07-30 02:43:00,50.2,42.3,29.94,NNW,328,6.0,6.0,74,0.00,,,0.02,meteohub,2013-07-30 08:43:00,
2013-07-30 02:48:00,50.2,42.3,29.94,NW,324,3.0,6.0,74,0.00,,,0.02,meteohub,2013-07-30 08:48:00,
2013-07-30 02:54:00,50.2,42.6,29.94,North,11,3.0,7.0,75,0.00,,,0.02,meteohub,2013-07-30 08:54:00,
2013-07-30 02:59:00,50.2,42.3,29.94,NNW,335,4.0,7.0,74,0.00,,,0.02,meteohub,2013-07-30 08:59:00,
2013-07-30 03:05:00,50.2,42.6,29.94,NNW,337,3.0,6.0,75,0.00,,,0.02,meteohub,2013-07-30 09:05:00,
2013-07-30 03:10:00,50.2,42.3,29.94,NW,324,3.0,5.0,74,0.00,,,0.02,meteohub,2013-07-30 09:10:00,
2013-07-30 03:15:00,50.2,42.3,29.94,NW,319,3.0,5.0,74,0.00,,,0.02,meteohub,2013-07-30 09:15:00,
2013-07-30 03:20:00,50.0,42.1,29.94,NNW,337,2.0,5.0,74,0.00,,,0.02,meteohub,2013-07-30 09:20:00,
2013-07-30 03:25:00,49.8,41.9,29.94,NNW,337,3.0,5.0,74,0.00,,,0.02,meteohub,2013-07-30 09:25:00,
2013-07-30 03:30:00,49.6,42.1,29.94,NNW,327,3.0,4.0,75,0.00,,,0.02,meteohub,2013-07-30 09:30:00,
2013-07-30 03:35:00,49.3,42.1,29.94,NW,325,1.0,5.0,76,0.00,,,0.02,meteohub,2013-07-30 09:35:00,
2013-07-30 03:40:00,49.1,41.9,29.94,NNW,327,2.0,5.0,76,0.00,,,0.02,meteohub,2013-07-30 09:40:00,
2013-07-30 03:45:00,49.5,41.9,29.94,WNW,300,3.0,4.0,75,0.00,,,0.02,meteohub,2013-07-30 09:45:00,
2013-07-30 03:50:00,49.5,41.9,29.94,NW,314,2.0,4.0,75,0.00,,,0.02,meteohub,2013-07-30 09:50:00,
2013-07-30 03:55:00,49.3,41.7,29.94,NNW,333,4.0,6.0,75,0.00,,,0.02,meteohub,2013-07-30 09:55:00,
2013-07-30 04:00:00,49.3,41.7,29.95,WNW,285,2.0,6.0,75,0.00,,,0.02,meteohub,2013-07-30 10:00:00,
2013-07-30 04:06:00,49.6,42.1,29.95,NW,326,2.0,6.0,75,0.00,,,0.02,meteohub,2013-07-30 10:06:00,
2013-07-30 04:11:00,49.6,41.7,29.95,NNW,328,5.0,5.0,74,0.00,,,0.02,meteohub,2013-07-30 10:11:00,
2013-07-30 04:16:00,49.8,41.9,29.95,NNW,336,3.0,6.0,74,0.00,,,0.02,meteohub,2013-07-30 10:16:00,
2013-07-30 04:21:00,49.6,42.1,29.95,NNW,329,2.0,6.0,75,0.00,,,0.02,meteohub,2013-07-30 10:21:00,
2013-07-30 04:26:00,49.3,41.7,29.95,NW,309,0.0,6.0,75,0.00,,,0.02,meteohub,2013-07-30 10:26:00,
2013-07-30 04:31:00,49.1,41.5,29.96,NW,312,3.0,5.0,75,0.00,,,0.02,meteohub,2013-07-30 10:31:00,
2013-07-30 04:37:00,49.3,41.7,29.95,NNW,345,2.0,4.0,75,0.00,,,0.02,meteohub,2013-07-30 10:37:00,
2013-07-30 04:42:00,48.7,41.5,29.95,North,359,4.0,4.0,76,0.00,,,0.02,meteohub,2013-07-30 10:42:00,
2013-07-30 04:47:00,47.8,41.7,29.95,NNW,330,6.0,6.0,79,0.00,,,0.02,meteohub,2013-07-30 10:47:00,
2013-07-30 04:52:00,47.3,41.4,29.95,NW,304,2.0,6.0,80,0.00,,,0.02,meteohub,2013-07-30 10:52:00,
2013-07-30 04:57:00,47.1,41.4,29.96,WNW,301,2.0,6.0,80,0.00,,,0.02,meteohub,2013-07-30 10:57:00,
2013-07-30 05:02:00,47.7,41.5,29.96,WNW,288,4.0,6.0,79,0.00,,,0.02,meteohub,2013-07-30 11:02:00,
2013-07-30 05:07:00,48.7,41.5,29.96,West,263,3.0,5.0,76,0.00,,,0.02,meteohub,2013-07-30 11:07:00,
2013-07-30 05:12:00,49.3,41.7,29.97,West,280,5.0,5.0,75,0.00,,,0.02,meteohub,2013-07-30 11:12:00,
2013-07-30 05:17:00,49.8,41.5,29.97,West,271,3.0,5.0,73,0.00,,,0.02,meteohub,2013-07-30 11:17:00,
2013-07-30 05:22:00,49.8,41.5,29.97,WNW,284,2.0,5.0,73,0.00,,,0.02,meteohub,2013-07-30 11:22:00,
2013-07-30 05:28:00,50.5,41.5,29.97,West,276,3.0,5.0,71,0.00,,,0.02,meteohub,2013-07-30 11:28:00,
2013-07-30 05:33:00,51.6,41.4,29.98,WNW,282,2.0,4.0,68,0.00,,,0.02,meteohub,2013-07-30 11:33:00,
2013-07-30 05:38:00,50.4,41.0,29.98,North,8,2.0,4.0,70,0.00,,,0.02,meteohub,2013-07-30 11:38:00,
2013-07-30 05:43:00,49.6,41.0,29.98,North,351,2.0,4.0,72,0.00,,,0.02,meteohub,2013-07-30 11:43:00,
2013-07-30 05:48:00,49.1,40.8,29.98,NNW,339,2.0,7.0,73,0.00,,,0.02,meteohub,2013-07-30 11:48:00,
2013-07-30 05:53:00,48.7,40.8,29.98,NNW,330,3.0,7.0,74,0.00,,,0.02,meteohub,2013-07-30 11:53:00,
2013-07-30 05:58:00,48.0,40.8,29.98,WNW,293,2.0,5.0,76,0.00,,,0.02,meteohub,2013-07-30 11:58:00,
2013-07-30 06:03:00,47.8,40.6,29.98,NW,321,1.0,5.0,76,0.00,,,0.02,meteohub,2013-07-30 12:03:00,
2013-07-30 06:08:00,47.8,40.6,29.99,NW,309,1.0,4.0,76,0.00,,,0.02,meteohub,2013-07-30 12:08:00,
2013-07-30 06:13:00,47.5,40.6,29.99,NW,314,1.0,3.0,77,0.00,,,0.02,meteohub,2013-07-30 12:13:00,
2013-07-30 06:18:00,47.5,40.6,29.99,NW,321,1.0,3.0,77,0.00,,,0.02,meteohub,2013-07-30 12:18:00,
2013-07-30 06:24:00,47.8,40.6,29.99,North,351,5.0,5.0,76,0.00,,,0.02,meteohub,2013-07-30 12:24:00,
2013-07-30 06:29:00,47.8,41.0,29.99,NNW,330,3.0,5.0,77,0.00,,,0.02,meteohub,2013-07-30 12:29:00,
2013-07-30 06:34:00,47.8,41.0,29.99,West,276,2.0,6.0,77,0.00,,,0.02,meteohub,2013-07-30 12:34:00,
2013-07-30 06:39:00,48.4,41.2,29.99,NNW,327,0.0,6.0,76,0.00,,,0.02,meteohub,2013-07-30 12:39:00,
2013-07-30 06:44:00,48.6,42.1,30.00,North,352,3.0,6.0,78,0.00,,,0.02,meteohub,2013-07-30 12:44:00,
2013-07-30 06:49:00,48.2,41.7,30.00,NNW,335,6.0,6.0,78,0.00,,,0.02,meteohub,2013-07-30 12:49:00,
2013-07-30 06:54:00,48.6,41.7,30.00,NNW,337,2.0,6.0,77,0.00,,,0.02,meteohub,2013-07-30 12:54:00,
2013-07-30 06:59:00,48.7,41.9,30.00,NW,326,4.0,8.0,77,0.00,,,0.02,meteohub,2013-07-30 12:59:00,
2013-07-30 07:04:00,48.9,42.1,30.00,NW,326,4.0,8.0,77,0.00,,,0.02,meteohub,2013-07-30 13:04:00,
2013-07-30 07:09:00,48.9,42.4,30.00,NW,312,3.0,6.0,78,0.00,,,0.02,meteohub,2013-07-30 13:09:00,
2013-07-30 07:14:00,49.3,42.8,30.00,NW,324,6.0,7.0,78,0.00,,,0.02,meteohub,2013-07-30 13:14:00,
2013-07-30 07:19:00,49.5,43.2,30.00,NW,320,5.0,8.0,79,0.00,,,0.02,meteohub,2013-07-30 13:19:00,
2013-07-30 07:24:00,49.5,42.8,30.00,NNE,18,2.0,9.0,78,0.00,,,0.02,meteohub,2013-07-30 13:24:00,
2013-07-30 07:30:00,50.0,43.3,30.01,NW,320,6.0,10.0,78,0.00,,,0.02,meteohub,2013-07-30 13:30:00,
2013-07-30 07:35:00,50.2,43.5,30.00,North,349,6.0,10.0,78,0.00,,,0.02,meteohub,2013-07-30 13:35:00,
2013-07-30 07:40:00,50.4,43.2,30.01,NNW,327,4.0,10.0,76,0.00,,,0.02,meteohub,2013-07-30 13:40:00,
2013-07-30 07:45:00,50.7,43.7,30.01,NNW,342,2.0,9.0,77,0.00,,,0.02,meteohub,2013-07-30 13:45:00,
2013-07-30 07:50:00,51.3,43.5,30.01,NNW,344,4.0,10.0,75,0.00,,,0.02,meteohub,2013-07-30 13:50:00,
2013-07-30 07:55:00,51.4,44.1,30.01,NNW,333,5.0,10.0,76,0.00,,,0.02,meteohub,2013-07-30 13:55:00,
2013-07-30 08:00:00,52.0,45.0,30.01,NNW,336,1.0,9.0,77,0.00,,,0.02,meteohub,2013-07-30 14:00:00,
2013-07-30 08:05:00,52.2,45.5,30.01,NNW,333,6.0,9.0,78,0.00,,,0.02,meteohub,2013-07-30 14:05:00,
2013-07-30 08:10:00,51.8,44.8,30.01,NW,316,5.0,9.0,77,0.00,,,0.02,meteohub,2013-07-30 14:10:00,
2013-07-30 08:16:00,52.2,45.1,30.01,NNW,330,3.0,7.0,77,0.00,,,0.02,meteohub,2013-07-30 14:16:00,
2013-07-30 08:21:00,52.9,45.1,30.00,NNW,346,7.0,7.0,75,0.00,,,0.02,meteohub,2013-07-30 14:21:00,
2013-07-30 08:26:00,53.1,46.0,30.00,West,276,2.0,9.0,77,0.00,,,0.02,meteohub,2013-07-30 14:26:00,
2013-07-30 08:32:00,53.8,45.3,30.00,WNW,297,1.0,9.0,73,0.00,,,0.02,meteohub,2013-07-30 14:32:00,
2013-07-30 08:37:00,54.1,45.3,30.00,NNW,334,5.0,8.0,72,0.00,,,0.02,meteohub,2013-07-30 14:37:00,
2013-07-30 08:42:00,54.9,45.7,30.00,NNW,342,2.0,7.0,71,0.00,,,0.02,meteohub,2013-07-30 14:42:00,
2013-07-30 08:47:00,55.6,45.1,30.00,West,277,2.0,7.0,68,0.00,,,0.02,meteohub,2013-07-30 14:47:00,
2013-07-30 08:52:00,56.5,43.7,30.00,NNE,16,0.0,7.0,62,0.00,,,0.02,meteohub,2013-07-30 14:52:00,
2013-07-30 08:57:00,57.6,45.9,30.00,NNW,338,1.0,6.0,65,0.00,,,0.02,meteohub,2013-07-30 14:57:00,
2013-07-30 09:02:00,58.1,45.1,30.00,NE,49,2.0,4.0,62,0.00,,,0.02,meteohub,2013-07-30 15:02:00,
2013-07-30 09:07:00,58.3,45.0,30.00,SSE,163,1.0,4.0,61,0.00,,,0.02,meteohub,2013-07-30 15:07:00,
2013-07-30 09:12:00,58.5,44.2,30.00,ESE,122,0.0,4.0,59,0.00,,,0.02,meteohub,2013-07-30 15:12:00,
2013-07-30 09:17:00,59.4,46.4,30.01,NW,316,0.0,4.0,62,0.00,,,0.02,meteohub,2013-07-30 15:17:00,
2013-07-30 09:22:00,59.4,46.4,30.00,NE,41,0.0,4.0,62,0.00,,,0.02,meteohub,2013-07-30 15:22:00,
2013-07-30 09:27:00,59.5,45.1,30.00,East,84,0.0,4.0,59,0.00,,,0.02,meteohub,2013-07-30 15:27:00,
2013-07-30 09:32:00,59.7,45.9,30.00,NE,50,2.0,4.0,60,0.00,,,0.02,meteohub,2013-07-30 15:32:00,
2013-07-30 09:37:00,59.5,45.7,30.00,SSE,157,2.0,5.0,60,0.00,,,0.02,meteohub,2013-07-30 15:37:00,
2013-07-30 09:42:00,60.3,45.9,30.00,SSW,200,1.0,5.0,59,0.00,,,0.02,meteohub,2013-07-30 15:42:00,
2013-07-30 09:47:00,61.3,44.6,29.99,SE,129,3.0,5.0,54,0.00,,,0.02,meteohub,2013-07-30 15:47:00,
2013-07-30 09:52:00,61.7,45.0,29.99,East,91,1.0,6.0,54,0.00,,,0.02,meteohub,2013-07-30 15:52:00,
2013-07-30 09:58:00,62.1,44.8,30.00,ESE,116,0.0,6.0,53,0.00,,,0.02,meteohub,2013-07-30 15:58:00,
2013-07-30 10:03:00,62.4,45.5,29.99,SE,134,1.0,6.0,54,0.00,,,0.02,meteohub,2013-07-30 16:03:00,
2013-07-30 10:08:00,62.6,44.2,29.99,ENE,59,2.0,4.0,51,0.00,,,0.02,meteohub,2013-07-30 16:08:00,
2013-07-30 10:13:00,62.8,45.0,29.99,East,96,2.0,4.0,52,0.00,,,0.02,meteohub,2013-07-30 16:13:00,
2013-07-30 10:18:00,63.7,46.2,29.99,ESE,107,4.0,4.0,53,0.00,,,0.02,meteohub,2013-07-30 16:18:00,
2013-07-30 10:23:00,63.9,45.9,29.99,SE,127,3.0,5.0,52,0.00,,,0.02,meteohub,2013-07-30 16:23:00,
2013-07-30 10:29:00,64.0,45.0,29.99,SE,134,3.0,7.0,50,0.00,,,0.02,meteohub,2013-07-30 16:29:00,
2013-07-30 10:34:00,64.8,45.1,29.99,SSE,147,1.0,7.0,49,0.00,,,0.02,meteohub,2013-07-30 16:34:00,
2013-07-30 10:39:00,65.7,46.0,29.99,SSE,148,1.0,7.0,49,0.00,,,0.02,meteohub,2013-07-30 16:39:00,
2013-07-30 10:44:00,65.8,45.7,29.99,SSE,148,3.0,7.0,48,0.00,,,0.02,meteohub,2013-07-30 16:44:00,
2013-07-30 10:49:00,66.4,46.0,29.98,ESE,113,3.0,6.0,48,0.00,,,0.02,meteohub,2013-07-30 16:49:00,
2013-07-30 10:54:00,67.1,42.6,29.99,East,92,3.0,6.0,41,0.00,,,0.02,meteohub,2013-07-30 16:54:00,
2013-07-30 11:00:00,67.3,44.1,29.99,SE,144,0.0,6.0,43,0.00,,,0.02,meteohub,2013-07-30 17:00:00,
2013-07-30 11:05:00,67.8,43.9,29.98,SW,233,0.0,6.0,42,0.00,,,0.02,meteohub,2013-07-30 17:05:00,
2013-07-30 11:10:00,68.0,42.8,29.99,SSE,153,2.0,5.0,40,0.00,,,0.02,meteohub,2013-07-30 17:10:00,
2013-07-30 11:15:00,68.0,42.1,29.99,WSW,248,6.0,6.0,39,0.00,,,0.02,meteohub,2013-07-30 17:15:00,
2013-07-30 11:20:00,68.5,40.5,29.97,NW,304,8.0,8.0,36,0.00,,,0.02,meteohub,2013-07-30 17:20:00,
2013-07-30 11:25:00,68.5,39.7,29.98,West,281,7.0,16.0,35,0.00,,,0.02,meteohub,2013-07-30 17:25:00,
2013-07-30 11:30:00,69.1,40.3,29.98,NW,321,10.0,16.0,35,0.00,,,0.02,meteohub,2013-07-30 17:30:00,
2013-07-30 11:35:00,69.4,37.4,29.98,NW,324,9.0,24.0,31,0.00,,,0.02,meteohub,2013-07-30 17:35:00,
2013-07-30 11:40:00,69.8,39.4,29.98,NW,323,6.0,24.0,33,0.00,,,0.02,meteohub,2013-07-30 17:40:00,
2013-07-30 11:46:00,70.2,40.5,29.98,WNW,283,5.0,24.0,34,0.00,,,0.02,meteohub,2013-07-30 17:46:00,
2013-07-30 11:51:00,70.5,38.5,29.98,NW,315,6.0,18.0,31,0.00,,,0.02,meteohub,2013-07-30 17:51:00,
2013-07-30 11:56:00,70.3,41.4,29.98,NW,315,3.0,18.0,35,0.00,,,0.02,meteohub,2013-07-30 17:56:00,
2013-07-30 12:01:00,70.9,37.9,29.98,WNW,302,3.0,18.0,30,0.00,,,0.02,meteohub,2013-07-30 18:01:00,
2013-07-30 12:06:00,71.1,37.2,29.98,WNW,291,5.0,18.0,29,0.00,,,0.02,meteohub,2013-07-30 18:06:00,
2013-07-30 12:11:00,71.1,38.8,29.98,West,281,13.0,19.0,31,0.00,,,0.02,meteohub,2013-07-30 18:11:00,
2013-07-30 12:16:00,71.2,39.9,29.98,West,278,9.0,19.0,32,0.00,,,0.02,meteohub,2013-07-30 18:16:00,
2013-07-30 12:21:00,72.0,38.8,29.98,WNW,298,8.0,19.0,30,0.00,,,0.02,meteohub,2013-07-30 18:21:00,
2013-07-30 12:27:00,72.0,40.5,29.98,NW,314,5.0,18.0,32,0.00,,,0.02,meteohub,2013-07-30 18:27:00,
2013-07-30 12:32:00,71.2,38.3,29.98,West,272,4.0,21.0,30,0.00,,,0.02,meteohub,2013-07-30 18:32:00,
2013-07-30 12:37:00,72.0,39.7,29.98,NW,318,4.0,21.0,31,0.00,,,0.02,meteohub,2013-07-30 18:37:00,
2013-07-30 12:42:00,72.9,38.7,29.98,NW,313,6.0,13.0,29,0.00,,,0.02,meteohub,2013-07-30 18:42:00,
2013-07-30 12:47:00,74.1,37.9,29.98,NW,309,1.0,19.0,27,0.00,,,0.02,meteohub,2013-07-30 18:47:00,
2013-07-30 12:52:00,74.5,39.2,29.98,West,274,3.0,19.0,28,0.00,,,0.02,meteohub,2013-07-30 18:52:00,
2013-07-30 12:58:00,74.1,39.9,29.97,WSW,245,6.0,14.0,29,0.00,,,0.02,meteohub,2013-07-30 18:58:00,
2013-07-30 13:03:00,74.3,38.1,29.98,NW,304,7.0,14.0,27,0.00,,,0.02,meteohub,2013-07-30 19:03:00,
2013-07-30 13:08:00,73.8,37.8,29.97,WSW,257,4.0,14.0,27,0.00,,,0.02,meteohub,2013-07-30 19:08:00,
2013-07-30 13:13:00,74.5,39.2,29.98,WNW,288,3.0,14.0,28,0.00,,,0.02,meteohub,2013-07-30 19:13:00,
2013-07-30 13:18:00,74.3,39.9,29.97,NW,314,8.0,14.0,29,0.00,,,0.02,meteohub,2013-07-30 19:18:00,
2013-07-30 13:23:00,73.6,38.5,29.97,North,11,15.0,19.0,28,0.00,,,0.02,meteohub,2013-07-30 19:23:00,
2013-07-30 13:29:00,72.9,38.7,29.97,NW,326,18.0,19.0,29,0.00,,,0.02,meteohub,2013-07-30 19:29:00,
2013-07-30 13:34:00,72.9,36.9,29.97,NW,322,11.0,19.0,27,0.00,,,0.02,meteohub,2013-07-30 19:34:00,
2013-07-30 13:39:00,73.6,36.5,29.97,NW,325,10.0,22.0,26,0.00,,,0.02,meteohub,2013-07-30 19:39:00,
2013-07-30 13:44:00,73.2,39.0,29.97,NW,326,10.0,22.0,29,0.00,,,0.02,meteohub,2013-07-30 19:44:00,
2013-07-30 13:49:00,73.0,37.0,29.97,NNW,330,13.0,21.0,27,0.00,,,0.02,meteohub,2013-07-30 19:49:00,
2013-07-30 13:54:00,72.3,35.6,29.97,WNW,297,6.0,24.0,26,0.00,,,0.02,meteohub,2013-07-30 19:54:00,
2013-07-30 13:59:00,73.2,38.1,29.97,NNW,338,9.0,24.0,28,0.00,,,0.02,meteohub,2013-07-30 19:59:00,
2013-07-30 14:04:00,73.8,37.8,29.97,NNW,327,14.0,24.0,27,0.00,,,0.02,meteohub,2013-07-30 20:04:00,
2013-07-30 14:09:00,73.2,36.3,29.96,NW,319,12.0,20.0,26,0.00,,,0.02,meteohub,2013-07-30 20:09:00,
2013-07-30 14:14:00,73.8,36.7,29.96,NNW,329,15.0,20.0,26,0.00,,,0.02,meteohub,2013-07-30 20:14:00,
2013-07-30 14:20:00,74.1,39.9,29.96,NNW,347,11.0,20.0,29,0.00,,,0.02,meteohub,2013-07-30 20:20:00,
2013-07-30 14:25:00,75.0,36.9,29.96,NNW,337,7.0,21.0,25,0.00,,,0.02,meteohub,2013-07-30 20:25:00,
2013-07-30 14:30:00,75.4,37.0,29.96,NW,307,6.0,21.0,25,0.00,,,0.02,meteohub,2013-07-30 20:30:00,
2013-07-30 14:35:00,75.0,36.9,29.96,NNW,330,6.0,18.0,25,0.00,,,0.02,meteohub,2013-07-30 20:35:00,
2013-07-30 14:40:00,75.0,36.9,29.96,NNW,339,11.0,18.0,25,0.00,,,0.02,meteohub,2013-07-30 20:40:00,
2013-07-30 14:45:00,74.8,35.6,29.96,NW,314,5.0,18.0,24,0.00,,,0.02,meteohub,2013-07-30 20:45:00,
2013-07-30 14:50:00,74.1,35.1,29.96,NNW,333,12.0,18.0,24,0.00,,,0.02,meteohub,2013-07-30 20:50:00,
2013-07-30 14:55:00,74.5,37.4,29.96,NW,316,7.0,18.0,26,0.00,,,0.02,meteohub,2013-07-30 20:55:00,
2013-07-30 15:00:00,74.7,36.5,29.96,NNW,342,8.0,24.0,25,0.00,,,0.02,meteohub,2013-07-30 21:00:00,
2013-07-30 15:05:00,74.8,37.6,29.96,NNW,337,11.0,24.0,26,0.00,,,0.02,meteohub,2013-07-30 21:05:00,
2013-07-30 15:10:00,74.5,38.3,29.96,NNW,341,9.0,24.0,27,0.00,,,0.02,meteohub,2013-07-30 21:10:00,
2013-07-30 15:16:00,75.0,36.9,29.95,NNW,332,6.0,17.0,25,0.00,,,0.02,meteohub,2013-07-30 21:16:00,
2013-07-30 15:21:00,75.6,36.3,29.95,NNE,16,7.0,17.0,24,0.00,,,0.02,meteohub,2013-07-30 21:21:00,
2013-07-30 15:26:00,75.0,36.9,29.96,NNW,331,7.0,14.0,25,0.00,,,0.02,meteohub,2013-07-30 21:26:00,
2013-07-30 15:31:00,75.4,35.1,29.96,NNW,330,5.0,14.0,23,0.00,,,0.02,meteohub,2013-07-30 21:31:00,
2013-07-30 15:36:00,74.8,36.7,29.95,NNW,337,3.0,14.0,25,0.00,,,0.02,meteohub,2013-07-30 21:36:00,
2013-07-30 15:41:00,73.9,37.8,29.95,NNW,338,5.0,14.0,27,0.00,,,0.02,meteohub,2013-07-30 21:41:00,
2013-07-30 15:46:00,74.7,38.5,29.95,WNW,301,4.0,11.0,27,0.00,,,0.02,meteohub,2013-07-30 21:46:00,
2013-07-30 15:51:00,74.5,37.4,29.94,NW,315,5.0,13.0,26,0.00,,,0.02,meteohub,2013-07-30 21:51:00,
2013-07-30 15:57:00,73.9,37.8,29.95,NNW,330,7.0,13.0,27,0.00,,,0.02,meteohub,2013-07-30 21:57:00,
2013-07-30 16:02:00,73.6,37.6,29.95,NNW,330,9.0,15.0,27,0.00,,,0.02,meteohub,2013-07-30 22:02:00,
2013-07-30 16:07:00,73.2,37.2,29.95,NW,304,8.0,15.0,27,0.00,,,0.02,meteohub,2013-07-30 22:07:00,
2013-07-30 16:12:00,73.2,38.1,29.95,NNW,327,5.0,15.0,28,0.00,,,0.02,meteohub,2013-07-30 22:12:00,
2013-07-30 16:17:00,73.2,39.9,29.94,NW,324,7.0,12.0,30,0.00,,,0.02,meteohub,2013-07-30 22:17:00,
2013-07-30 16:22:00,73.2,37.2,29.95,NW,322,8.0,11.0,27,0.00,,,0.02,meteohub,2013-07-30 22:22:00,
2013-07-30 16:27:00,73.9,40.5,29.95,NW,325,5.0,11.0,30,0.00,,,0.02,meteohub,2013-07-30 22:27:00,
2013-07-30 16:32:00,73.4,41.7,29.95,NNW,332,11.0,14.0,32,0.00,,,0.02,meteohub,2013-07-30 22:32:00,
2013-07-30 16:38:00,72.9,41.4,29.95,NW,313,8.0,15.0,32,0.00,,,0.02,meteohub,2013-07-30 22:38:00,
2013-07-30 16:43:00,73.4,41.7,29.95,NNE,27,8.0,16.0,32,0.00,,,0.02,meteohub,2013-07-30 22:43:00,
2013-07-30 16:48:00,73.9,39.7,29.95,WNW,302,2.0,16.0,29,0.00,,,0.02,meteohub,2013-07-30 22:48:00,
2013-07-30 16:53:00,74.5,41.0,29.95,West,274,2.0,16.0,30,0.00,,,0.02,meteohub,2013-07-30 22:53:00,
2013-07-30 16:58:00,74.7,39.4,29.95,West,269,7.0,13.0,28,0.00,,,0.02,meteohub,2013-07-30 22:58:00,
2013-07-30 17:03:00,74.1,39.0,29.95,West,279,8.0,13.0,28,0.00,,,0.02,meteohub,2013-07-30 23:03:00,
2013-07-30 17:08:00,73.6,39.4,29.95,WNW,296,5.0,13.0,29,0.00,,,0.02,meteohub,2013-07-30 23:08:00,
2013-07-30 17:14:00,73.6,38.5,29.95,WNW,291,2.0,13.0,28,0.00,,,0.02,meteohub,2013-07-30 23:14:00,
2013-07-30 17:19:00,73.2,40.8,29.95,North,349,4.0,13.0,31,0.00,,,0.02,meteohub,2013-07-30 23:19:00,
2013-07-30 17:24:00,73.0,38.8,29.95,WNW,295,1.0,11.0,29,0.00,,,0.02,meteohub,2013-07-30 23:24:00,
2013-07-30 17:29:00,73.0,38.8,29.95,WNW,285,13.0,13.0,29,0.00,,,0.02,meteohub,2013-07-30 23:29:00,
2013-07-30 17:34:00,72.9,38.7,29.94,WNW,290,5.0,10.0,29,0.00,,,0.02,meteohub,2013-07-30 23:34:00,
2013-07-30 17:39:00,72.5,40.1,29.95,NW,308,2.0,13.0,31,0.00,,,0.02,meteohub,2013-07-30 23:39:00,
2013-07-30 17:44:00,72.0,38.8,29.94,NW,307,7.0,13.0,30,0.00,,,0.02,meteohub,2013-07-30 23:44:00,
2013-07-30 17:49:00,71.8,38.7,29.95,NW,319,8.0,17.0,30,0.00,,,0.02,meteohub,2013-07-30 23:49:00,
2013-07-30 17:54:00,71.8,39.6,29.94,NW,326,8.0,17.0,31,0.00,,,0.02,meteohub,2013-07-30 23:54:00,
2013-07-30 17:59:00,71.8,38.7,29.94,NW,323,4.0,17.0,30,0.00,,,0.02,meteohub,2013-07-30 23:59:00,
2013-07-30 18:04:00,72.0,38.8,29.95,NW,304,3.0,12.0,30,0.00,,,0.02,meteohub,2013-07-31 00:04:00,
2013-07-30 18:10:00,72.0,38.8,29.94,WNW,293,4.0,10.0,30,0.00,,,0.00,meteohub,2013-07-31 00:10:00,
2013-07-30 18:15:00,71.8,38.7,29.95,NW,326,6.0,9.0,30,0.00,,,0.00,meteohub,2013-07-31 00:15:00,
2013-07-30 18:20:00,72.0,37.9,29.95,NW,323,4.0,9.0,29,0.00,,,0.00,meteohub,2013-07-31 00:20:00,
2013-07-30 18:25:00,72.0,37.9,29.95,NW,315,4.0,14.0,29,0.00,,,0.00,meteohub,2013-07-31 00:25:00,
2013-07-30 18:30:00,72.0,37.0,29.95,NNW,327,3.0,14.0,28,0.00,,,0.00,meteohub,2013-07-31 00:30:00,
2013-07-30 18:35:00,72.0,37.9,29.95,NW,323,6.0,14.0,29,0.00,,,0.00,meteohub,2013-07-31 00:35:00,
2013-07-30 18:40:00,72.0,37.0,29.95,NNW,335,4.0,11.0,28,0.00,,,0.00,meteohub,2013-07-31 00:40:00,
2013-07-30 18:45:00,72.7,37.8,29.94,NW,316,3.0,13.0,28,0.00,,,0.00,meteohub,2013-07-31 00:45:00,
2013-07-30 18:50:00,73.6,36.5,29.94,West,270,7.0,13.0,26,0.00,,,0.00,meteohub,2013-07-31 00:50:00,
2013-07-30 18:56:00,74.1,37.0,29.94,NNW,338,3.0,13.0,26,0.00,,,0.00,meteohub,2013-07-31 00:56:00,
2013-07-30 19:01:00,74.7,38.5,29.95,WNW,285,2.0,9.0,27,0.00,,,0.00,meteohub,2013-07-31 01:01:00,
2013-07-30 19:06:00,74.8,37.6,29.95,NNW,338,5.0,9.0,26,0.00,,,0.00,meteohub,2013-07-31 01:06:00,
2013-07-30 19:11:00,75.0,37.8,29.95,NNW,329,3.0,8.0,26,0.00,,,0.00,meteohub,2013-07-31 01:11:00,
2013-07-30 19:16:00,74.8,37.6,29.95,NW,317,2.0,7.0,26,0.00,,,0.00,meteohub,2013-07-31 01:16:00,
2013-07-30 19:21:00,74.7,38.5,29.95,NW,326,6.0,8.0,27,0.00,,,0.00,meteohub,2013-07-31 01:21:00,
2013-07-30 19:26:00,73.8,38.7,29.95,NW,314,7.0,8.0,28,0.00,,,0.00,meteohub,2013-07-31 01:26:00,
2013-07-30 19:31:00,73.2,38.1,29.95,NNW,333,8.0,11.0,28,0.00,,,0.00,meteohub,2013-07-31 01:31:00,
2013-07-30 19:37:00,72.9,38.7,29.95,NW,323,5.0,11.0,29,0.00,,,0.00,meteohub,2013-07-31 01:37:00,
2013-07-30 19:42:00,72.7,38.7,29.95,NNW,341,4.0,10.0,29,0.00,,,0.00,meteohub,2013-07-31 01:42:00,
2013-07-30 19:47:00,72.3,39.2,29.95,NW,304,4.0,9.0,30,0.00,,,0.00,meteohub,2013-07-31 01:47:00,
2013-07-30 19:52:00,71.8,39.6,29.95,West,266,1.0,8.0,31,0.00,,,0.00,meteohub,2013-07-31 01:52:00,
2013-07-30 19:57:00,70.5,40.1,29.96,West,276,3.0,8.0,33,0.00,,,0.00,meteohub,2013-07-31 01:57:00,
2013-07-30 20:02:00,69.6,38.5,29.96,WSW,258,3.0,6.0,32,0.00,,,0.00,meteohub,2013-07-31 02:02:00,
2013-07-30 20:07:00,69.3,38.8,29.96,WNW,291,3.0,6.0,33,0.00,,,0.00,meteohub,2013-07-31 02:07:00,
2013-07-30 20:12:00,68.9,37.8,29.96,WNW,288,3.0,5.0,32,0.00,,,0.00,meteohub,2013-07-31 02:12:00,
2013-07-30 20:17:00,68.5,39.0,29.95,WSW,249,3.0,4.0,34,0.00,,,0.00,meteohub,2013-07-31 02:17:00,
2013-07-30 20:22:00,67.8,39.2,29.96,West,269,4.0,6.0,35,0.00,,,0.00,meteohub,2013-07-31 02:22:00,
2013-07-30 20:27:00,66.9,38.3,29.96,WSW,249,4.0,6.0,35,0.00,,,0.00,meteohub,2013-07-31 02:27:00,
2013-07-30 20:32:00,66.7,38.3,29.96,WNW,294,6.0,7.0,35,0.00,,,0.00,meteohub,2013-07-31 02:32:00,
2013-07-30 20:37:00,66.4,38.7,29.96,WNW,295,4.0,7.0,36,0.00,,,0.00,meteohub,2013-07-31 02:37:00,
2013-07-30 20:43:00,66.0,38.3,29.96,WNW,286,5.0,7.0,36,0.00,,,0.00,meteohub,2013-07-31 02:43:00,
2013-07-30 20:48:00,65.5,39.2,29.96,NNW,330,4.0,8.0,38,0.00,,,0.00,meteohub,2013-07-31 02:48:00,
2013-07-30 20:53:00,65.1,38.8,29.96,WNW,295,5.0,8.0,38,0.00,,,0.00,meteohub,2013-07-31 02:53:00,
2013-07-30 20:58:00,65.3,38.3,29.97,NNW,328,3.0,8.0,37,0.00,,,0.00,meteohub,2013-07-31 02:58:00,
2013-07-30 21:03:00,65.5,37.8,29.98,NW,319,5.0,9.0,36,0.00,,,0.00,meteohub,2013-07-31 03:03:00,
2013-07-30 21:08:00,65.1,38.1,29.98,WNW,301,3.0,9.0,37,0.00,,,0.00,meteohub,2013-07-31 03:08:00,
2013-07-30 21:13:00,64.4,38.3,29.98,NW,316,3.0,9.0,38,0.00,,,0.00,meteohub,2013-07-31 03:13:00,
2013-07-30 21:18:00,63.3,39.2,29.99,NNW,342,5.0,6.0,41,0.00,,,0.00,meteohub,2013-07-31 03:18:00,
2013-07-30 21:23:00,64.6,38.5,29.99,NNW,335,3.0,7.0,38,0.00,,,0.00,meteohub,2013-07-31 03:23:00,
2013-07-30 21:28:00,64.6,39.0,29.99,NNW,332,3.0,7.0,39,0.00,,,0.00,meteohub,2013-07-31 03:28:00,
2013-07-30 21:34:00,64.9,38.1,29.99,NNW,347,2.0,7.0,37,0.00,,,0.00,meteohub,2013-07-31 03:34:00,
2013-07-30 21:39:00,64.9,38.7,30.00,North,5,2.0,7.0,38,0.00,,,0.00,meteohub,2013-07-31 03:39:00,
2013-07-30 21:44:00,64.2,38.1,30.00,NNW,345,3.0,5.0,38,0.00,,,0.00,meteohub,2013-07-31 03:44:00,
2013-07-30 21:49:00,64.6,39.0,30.00,NW,325,5.0,6.0,39,0.00,,,0.00,meteohub,2013-07-31 03:49:00,
2013-07-30 21:54:00,64.0,39.2,30.01,NNW,330,5.0,9.0,40,0.00,,,0.00,meteohub,2013-07-31 03:54:00,
2013-07-30 21:59:00,64.4,38.8,30.01,NNW,330,8.0,10.0,39,0.00,,,0.00,meteohub,2013-07-31 03:59:00,
2013-07-30 22:01:00,64.6,39.0,30.01,NNW,336,8.0,12.0,39,0.00,,,0.00,meteohub,2013-07-31 04:01:00,
2013-07-30 22:02:00,64.6,39.0,30.01,NW,326,8.0,12.0,39,0.00,,,0.00,meteohub,2013-07-31 04:02:00,
2013-07-30 22:03:00,64.6,39.0,30.01,NNW,336,6.0,12.0,39,0.00,,,0.00,meteohub,2013-07-31 04:03:00,
2013-07-30 22:07:00,64.2,38.7,30.01,NNW,329,8.0,12.0,39,0.00,,,0.00,meteohub,2013-07-31 04:07:00,
2013-07-30 22:12:00,63.7,39.6,30.01,NW,321,7.0,12.0,41,0.00,,,0.00,meteohub,2013-07-31 04:12:00,
2013-07-30 22:17:00,63.7,38.8,30.01,NNW,330,5.0,13.0,40,0.00,,,0.00,meteohub,2013-07-31 04:17:00,
2013-07-30 22:22:00,63.9,39.0,30.02,WNW,285,5.0,13.0,40,0.00,,,0.00,meteohub,2013-07-31 04:22:00,
2013-07-30 22:27:00,64.0,38.7,30.02,NW,326,2.0,13.0,39,0.00,,,0.00,meteohub,2013-07-31 04:27:00,
2013-07-30 22:32:00,64.2,38.7,30.02,WNW,284,2.0,11.0,39,0.00,,,0.00,meteohub,2013-07-31 04:32:00,
2013-07-30 22:37:00,63.9,38.5,30.03,NNW,327,2.0,6.0,39,0.00,,,0.00,meteohub,2013-07-31 04:37:00,
2013-07-30 22:42:00,63.9,39.0,30.03,WNW,293,2.0,5.0,40,0.00,,,0.00,meteohub,2013-07-31 04:42:00,
2013-07-30 22:47:00,63.9,39.0,30.03,North,5,1.0,4.0,40,0.00,,,0.00,meteohub,2013-07-31 04:47:00,
2013-07-30 22:52:00,63.5,38.7,30.03,NW,325,2.0,4.0,40,0.00,,,0.00,meteohub,2013-07-31 04:52:00,
2013-07-30 22:57:00,63.1,39.0,30.03,SW,233,2.0,4.0,41,0.00,,,0.00,meteohub,2013-07-31 04:57:00,
2013-07-30 23:02:00,63.0,38.8,30.03,SW,216,2.0,4.0,41,0.00,,,0.00,meteohub,2013-07-31 05:02:00,
2013-07-30 23:07:00,62.8,38.7,30.03,SSE,156,3.0,3.0,41,0.00,,,0.00,meteohub,2013-07-31 05:07:00,
2013-07-30 23:13:00,63.1,39.0,30.03,SSE,158,1.0,3.0,41,0.00,,,0.00,meteohub,2013-07-31 05:13:00,
2013-07-30 23:18:00,63.7,38.8,30.03,ESE,105,1.0,3.0,40,0.00,,,0.00,meteohub,2013-07-31 05:18:00,
2013-07-30 23:23:00,64.0,38.7,30.03,NNW,329,1.0,3.0,39,0.00,,,0.00,meteohub,2013-07-31 05:23:00,
2013-07-30 23:28:00,63.9,39.0,30.03,NNW,333,2.0,3.0,40,0.00,,,0.00,meteohub,2013-07-31 05:28:00,
2013-07-30 23:33:00,62.8,39.9,30.03,NNW,338,3.0,6.0,43,0.00,,,0.00,meteohub,2013-07-31 05:33:00,
2013-07-30 23:39:00,62.2,40.1,30.03,NNW,338,3.0,6.0,44,0.00,,,0.00,meteohub,2013-07-31 05:39:00,
2013-07-30 23:44:00,61.5,39.9,30.03,NNW,328,1.0,6.0,45,0.00,,,0.00,meteohub,2013-07-31 05:44:00,
2013-07-30 23:49:00,61.3,39.7,30.03,NNW,328,0.0,6.0,45,0.00,,,0.00,meteohub,2013-07-31 05:49:00,
2013-07-30 23:54:00,61.2,39.7,30.03,WNW,303,0.0,4.0,45,0.00,,,0.00,meteohub,2013-07-31 05:54:00,
2013-07-30 23:59:00,61.2,40.3,30.03,NNW,330,3.0,3.0,46,0.00,,,0.00,meteohub,2013-07-31 05:59:00,